Location: Bryzozowice
(50.3667°N, 18.9667°E)
Time: 22:42:40
(UTC+00:00)

ADEOS Rocket - Pass Details

Date: 24 January 2020
Orbit: 859 x 1306 km, 98.7° (Epoch: 17 February)

Event Time Altitude Azimuth Distance (km) Brightness Sun altitude
Rises 17:41:47 0° 16° (NNE) 3,785 5.9 -21.9°
Reaches altitude 10° 17:44:13 10° 19° (NNE) 2,888 5.2 -22.3°
Maximum altitude 17:50:48 68° 103° (ESE) 1,222 3.2 -23.3°
Drops below altitude 10° 17:58:04 10° 186° (S) 3,175 5.7 -24.5°
Sets 18:00:50 0° 189° (S) 4,183 6.4 -24.9°
